Location: Seattle
(47.6064°N, 122.3308°W)
Time: 02:24:07
(UTC-08:00)

A-11 Canister half - Pass Details

Date: 28 November 2020
Orbit: 1524 x 1684 km, 47.3° (Epoch: 21 January)

Event Time Altitude Azimuth Distance (km) Brightness Sun altitude
Rises 11:12:54 0° 287° (WNW) 4,901 11.4 20.2°
Reaches altitude 10° 11:16:07 10° 285° (WNW) 3,894 10.9 20.3°
Maximum altitude 11:25:52 65° 207° (SSW) 1,746 10.1 20.5°
Drops below altitude 10° 11:35:16 10° 128° (SE) 3,759 11.8 20.7°
Sets 11:38:19 0° 126° (SE) 4,722 12.2 20.8°
